FENGYUN 1C DEB

Satellite information

Favourite Embed

Satellite Type and Status

DEBRISIN ORBIT

Key statistics

Satellite FENGYUN 1C DEB at a glance.

Uptime

9715

Days in orbit

Revolutions

≈ 14.1

Per day

Orbit

SSO

Sun Synchronous Orbit

Inclination

99.9

Latest

Satellite identification and parameters

Extended collection of information and parameters for FENGYUN 1C DEB.

Object identification

Identified? True

Debris? True

Object name: FENGYUN 1C DEB

International designator: 1999-025GR

Object number (NORAD): 29895

Object ID (CCSDS): 29895

Country: PEOPLES REPUBLIC OF CHINA (PRC)

Current information (Y/N): Y

RCS size: SMALL

Orbital parameters

Period: 102.255 minutes

Inclination: 99.8842 deg

SMA: 7243.524 km

Apoapsis: 1082.241 km

Periapsis: 648.537 km

RAAN: 95.6754 deg

Eccentricy: 0.02993742

Argument of periapsis: 342.3496 deg

Mean anomaly: 74.067 deg

Mean motion: 14.08244016 rev/day

Mean motion (dot): 0.0000852 rev/day2

B* drag term: 0.003321772 1/REarth

Two-line elements (TLE)

Creation date: Dec. 13, 2025, 5:47 p.m.

Reference frame: TEME

Reference center: EARTH

Epoch: Dec. 13, 2025, 5:38 a.m. UTC

TLE line 0: 0 FENGYUN 1C DEB

TLE line 1: 1 29895U 99025GR 25347.23516090 .00008520 00000-0 33218-2 0 9999

TLE line 2: 2 29895 99.8842 95.6754 0299374 342.3496 74.0670 14.08244016955313

Live tracking on map

Real-time ground track for satellite FENGYUN 1C DEB.

In-orbit conjunctions

A list of the most updated potential collisions computed for object FENGYUN 1C DEB.

Target Orbit TCA Probability of collision Miss distance Type
COSMOS 2327 LEO 2024-11-02 11:50:13 0.001162907 101.0 (m) PAYLOAD
ARIANE 40 R/B SSO 2024-09-03 18:08:31 0.000151602 600.0 (m) ROCKET BODY

Associated space launch

Chinese polar orbiting meteorological satellite

FENGYUN 1C DEB was lifted into orbit during the mission ‘Long March 4B | Feng Yun 1C’, on board a Long March 4B space rocket.

The launch took place on May 10, 1999, 1:33 a.m. from Launch Complex 7.

For more information about the launch, click the button.

Launch to space Long March 4B | Feng Yun 1C
Long March 4B | Feng Yun 1C

Agency: N/A

Status: Launch Successful

Launch date: May 10, 1999, 1:33 a.m. UTC

Rocket: Long March 4B

Launch pad: Launch Complex 7

Location: Taiyuan Satellite Launch Center, People's Republic of China

...

Latest news about this satellite

There are no fresh news available about this satellite. Check back as we update our databases every day.


Newsletter sign-up

Weekly statistics, charts and insights to help you stay on top of the space industry.